Flag for Germany Weather past 2 weeks in Altenburg, Thuringia, Germany

Now
62 °F

Scattered clouds.


Feels Like: 62 °F
Forecast: 55 / 67 °F
Wind: 13 mph from West

Location: Gera-Leumnitz

Current Time: Jul 28, 2015 at 10:33:34 AM

Latest Report: Jul 28, 2015 at 10:00 AM


Visibility: 31 mi

Pressure: 29.71 "Hg

Humidity: 61%

Dew point: 48 °F

Location of AltenburgLocation

Historic Weather in Altenburg — Graph

°F

Altenburg temperature yesterday

Maximum temperature yesterday: 68 °F (at 6:00 PM)
Minimum temperature yesterday: 56 °F (at 5:00 AM)
Average temperature yesterday: 62 °F

Past Weeks' High & Low Weather Summary

 TemperatureHumidityPressure
High92 °F (Jul 17, 6:00 PM)100% (Jul 19, 4:00 AM)30.11 "Hg (Jul 19, 4:00 AM)
Low55 °F (Jul 26, 8:00 AM)26% (Jul 17, 5:00 PM)29.60 "Hg (Jul 27, 1:00 PM)
Average69 °F67%29.90 "Hg
* Reported Jul 13 11:00 AM — Jul 28 9:00 AM, Altenburg, Weather by CustomWeather, © 2015

Note: Actual official high and low records may vary slightly from our data, if they occured in-between our weather recording intervals... More about our weather records

Advertising

Altenburg weather history for previous 24 hours

 ConditionsComfort  
Time TempWeatherWind HumidityBarometerVisibility
9:00 AM
Tue, Jul 28
58 °FOvercast.8 mph75%29.71 "Hg43 mi
8:00 AM58 °FDrizzle. Low clouds.9 mph76%29.71 "Hg19 mi
7:00 AM58 °FDrizzle. Overcast.2 mph86%29.69 "Hg43 mi
6:00 AM58 °FOvercast.5 mph82%29.68 "Hg43 mi
5:00 AM58 °FOvercast.6 mph80%29.68 "Hg43 mi
4:00 AM57 °FPassing clouds.5 mph86%29.68 "Hg43 mi
3:00 AM57 °FOvercast.1 mph94%29.70 "Hg19 mi
2:00 AM59 °FOvercast.2 mph84%29.70 "Hg43 mi
1:00 AM60 °FLight rain. Low clouds.7 mph79%29.70 "Hg7 mi
11:00 PM
Mon, Jul 27
62 °FOvercast.6 mph71%29.69 "Hg43 mi
10:00 PM62 °FPassing clouds.5 mph71%29.69 "Hg43 mi
9:00 PM64 °FOvercast.8 mph65%29.67 "Hg43 mi
8:00 PM65 °FOvercast.9 mph63%29.65 "Hg43 mi
7:00 PM66 °FOvercast.9 mph61%29.63 "Hg43 mi
6:00 PM68 °FOvercast.9 mph59%29.62 "Hg28 mi
5:00 PM66 °FOvercast.9 mph63%29.63 "Hg34 mi
4:00 PM67 °FOvercast.8 mph69%29.62 "Hg34 mi
3:00 PM63 °FLight rain. Overcast.8 mph82%29.62 "Hg25 mi
2:00 PM61 °FLow clouds.6 mph91%29.62 "Hg37 mi
1:00 PM67 °FOvercast.9 mph60%29.60 "Hg25 mi
12:00 PM62 °FLow clouds.7 mph82%29.62 "Hg25 mi
11:00 AM63 °FOvercast.7 mph76%29.63 "Hg25 mi
10:00 AM62 °FOvercast.8 mph70%29.64 "Hg34 mi
Weather by CustomWeather, © 2015

See weather overviewHow to use our weather pages